Weather Service Report


002 
ASUS46 KPQR 280710
RWROR 

OREGON REGIONAL WEATHER ROUNDUP
NATIONAL WEATHER SERVICE PORTLAND OR
1200 AM PDT MON JUL 28 2014

NOTE: "FAIR" INDICATES FEW OR NO CLOUDS BELOW 12,000 FEET WITH
NO SIGNIFICANT WEATHER AND/OR OBSTRUCTIONS TO VISIBILITY.

ORZ001>013-280800-
NORTHWEST OREGON

  
CITY           SKY/WX    TMP DP  RH WIND       PRES   REMARKS
ASTORIA        CLEAR     57  54  89 S5        30.11S                  
NEWPORT        CLEAR     54  54 100 N3        30.12R                  
PORTLAND       CLEAR     72  56  57 NW6       30.04S                  
VANCOUVER WA   CLEAR     73  54  51 NW9       30.03S                  
SCAPPOOSE      CLEAR     72  55  55 NW9       30.04R                  
HILLSBORO      CLEAR     68  56  65 NW9       30.05R                  
AURORA         CLEAR     70  57  63 N6        30.05S                  
MCMINNVILLE    CLEAR     65  58  78 W6        30.05S                  
SALEM          CLEAR     70  57  63 NW7       30.03S                  
CORVALLIS      CLEAR     66  57  72 NW10      30.05S                  
EUGENE         CLEAR     65  55  70 SE3       30.04R                  
$$

ORZ021-028-280800-
SOUTHWEST OREGON

  
CITY           SKY/WX    TMP DP  RH WIND       PRES   REMARKS
NORTH BEND     MOCLDY    57  57 100 N12       30.09R                  
BROOKINGS      SUNNY     58  56  93 NW3       30.01S                  
ROSEBURG       CLEAR     71  52  50 CALM      30.03R                  
SEXTON SUMMIT  CLEAR     65  49  56 N14       30.17R                  
MEDFORD        CLEAR     78  52  40 S3        30.01R                  
$$

ORZ009-041-280800-
COLUMBIA GORGE

  
CITY           SKY/WX    TMP DP  RH WIND       PRES   REMARKS
TROUTDALE      CLEAR     71  56  58 VRB3      30.03R                  
THE DALLES     MOCLDY    76  61  59 W6        29.98S                  
$$

ORZ029>031-042>050-061>064-280800-
EASTERN OREGON

  
CITY           SKY/WX    TMP DP  RH WIND       PRES   REMARKS
REDMOND        PTCLDY    63  40  42 NW3       30.13S                  
BEND           MOSUNNY   68  43  40 W7        30.17S                  
KLAMATH FALLS  CLEAR     57  47  69 CALM      30.18R                  
LAKEVIEW       MOCLDY    64  36  34 NW13      30.23S                  
HERMISTON      CLOUDY    79  42  26 SE6       29.97R                  
PENDLETON      MOCLDY    74  40  29 E9        30.02F                  
JOHN DAY       PTSUNNY   76  39  26 SW3       30.18S                  
MEACHAM        PTCLDY    60  47  61 CALM      30.18F                  
LA GRANDE      PTCLDY    79  37  22 N9G20     30.09R                  
BAKER CITY     PTCLDY    67  42  40 S5        30.13R                  
BURNS          MOCLDY    76  36  23 NW17G24   30.16R                  
ROME             N/A     76  28  17 CALM      30.09R                  
ONTARIO        CLEAR     75  47  36 W5        29.99R                  
$$

Return to Home page


Western Regional Climate Center, wrcc@dri.edu